#timestamp,LO_Frequency,Hit,StdDev 
1678885215.3,286047001.8,N
1678885235.2,286047002.8,N
1678885255.9,286047000.6,N
1678885275.7,286047002.1,N
1678885295.6,286047001.6,N
1678885315.4,286047001.9,N
1678885335.3,286047002.2,N
1678885355.1,286046999.7,N
1678885356.0,286046999.7,N
1678885375.8,286047000.5,N
1678885395.7,286047000.7,N
1678885415.5,286047000.1,N
1678885435.3,286047002.0,N
1678885455.2,286047002.7,N
1678885475.0,286046998.8,N
1678885475.9,286046998.8,N
1678885495.8,286046999.0,N
1678885515.6,286046999.0,N
1678885535.4,286046998.7,N
1678885555.3,286046999.9,N
1678885575.1,286047000.9,N
1678885595.9,286046998.1,N
1678885615.7,286047001.0,N
1678885635.5,286047001.0,N
1678885655.4,286046999.9,N
1678885675.2,286047001.1,N
1678885695.1,286047001.2,N
1678885696.0,286047001.2,N
1678885715.8,286047000.8,N
1678885735.6,286047001.0,N
1678885755.5,286047000.1,N
1678885775.3,286047000.3,N
1678885795.1,286047000.5,N
1678885815.9,286047000.3,N
1678885835.7,286047000.3,N
1678885855.6,286047000.4,N
1678885875.4,286047000.5,N
1678885895.2,286047002.0,N
1678885915.1,286047002.7,N
1678885916.0,286047002.7,N
1678885935.8,286046999.2,N
1678885955.7,286046995.0,Y
1678885975.5,286046995.4,P
1678885995.3,286046995.0,N
1678886015.2,286046997.4,N
1678886035.0,286046999.1,N
1678886035.9,286046999.1,N
1678886055.8,286046996.5,N
1678886075.6,286046998.1,N
1678886095.4,286046998.3,N
1678886115.3,286046999.4,N
1678886135.1,286046996.8,N
1678886155.8,286046998.7,N
1678886175.7,286046998.5,N
1678886195.5,286047000.7,N
1678886215.4,286047002.6,N
1678886235.2,286047001.1,N
1678886255.0,286047000.7,N
1678886255.9,286047000.7,N
1678886275.8,286047001.1,N
1678886295.6,286047002.2,N
1678886315.4,286046999.9,N
1678886335.3,286047000.4,N
1678886355.1,286047000.0,N
1678886375.9,286047000.6,N
1678886395.7,286047002.8,N
1678886415.5,286047002.6,N
1678886435.4,286047000.4,N
1678886455.2,286047002.4,N
1678886475.0,286047004.4,N
1678886475.9,286047004.4,N
1678886495.8,286047002.8,N
1678886515.6,286047002.3,N
1678886535.5,286047001.1,N
1678886555.3,286047000.6,N
1678886575.1,286047001.1,N
1678886595.9,286046998.6,N
1678886615.7,286046998.1,N
1678886635.5,286047000.6,N
1678886655.4,286047000.8,N
1678886675.2,286046998.6,N
1678886695.1,286046997.6,N
1678886696.0,286046997.6,N
1678886715.8,286046995.1,N
1678886735.6,286046995.6,N
1678886755.5,286046994.0,N
1678886775.3,286046995.9,N
1678886795.1,286046995.5,N
1678886815.9,286046995.2,N
1678886835.7,286046997.9,N
1678886855.6,286046997.4,N
1678886875.4,286046996.9,N
1678886895.2,286046999.3,N
1678886915.1,286046999.0,N
1678886916.0,286046999.0,N
1678886935.8,286046998.9,N
1678886955.6,286046998.2,N
1678886975.5,286047000.9,N
1678886995.3,286046999.9,N
1678887015.2,286047002.7,N
1678887035.9,286046999.8,N
1678887055.7,286047002.8,N
1678887075.6,286046999.8,N
1678887095.4,286046999.7,N
1678887115.2,286047002.7,N
1678887135.1,286047002.6,N
1678887136.0,286047002.6,N
1678887155.8,286047000.6,N
1678887175.7,286047001.6,N
1678887195.5,286047000.3,N
1678887215.3,286047000.5,N
1678887235.2,286047000.8,N
1678887255.9,286047002.7,N
1678887275.7,286047000.1,N
1678887295.6,286047000.5,N
1678887315.4,286046998.6,N
1678887335.3,286047001.1,N
1678887355.1,286046998.6,N
1678887356.0,286046998.6,N
1678887375.8,286047000.4,N
1678887395.7,286047001.0,N
1678887415.5,286047001.2,N
1678887435.3,286046998.6,N
1678887455.2,286046998.5,N
1678887475.0,286047000.6,N
1678887475.9,286047000.6,N
1678887495.8,286047000.8,N
1678887515.6,286047001.1,N
1678887535.4,286046999.8,N
1678887555.3,286047002.0,N
1678887575.1,286047000.5,N
1678887595.9,286047000.2,N
1678887615.7,286047000.5,N
1678887635.5,286046999.8,N
1678887655.4,286047002.3,N
1678887675.2,286047003.9,Y
1678887695.0,286046999.9,P
1678887695.9,286046999.9,N
1678887715.8,286047002.3,P
1678887735.6,286047000.8,N
1678887755.5,286047001.2,N
1678887775.3,286046999.0,N
1678887795.1,286046998.9,N
1678887815.9,286047000.6,N
1678887835.7,286046998.1,N
1678887855.5,286047001.0,N
1678887875.4,286046998.6,N
1678887895.2,286047000.2,N
1678887915.1,286047002.5,N
1678887916.0,286047002.5,N
1678887935.8,286047001.1,N
1678887955.6,286046998.1,N
1678887975.5,286047001.7,N
1678887995.3,286046999.8,N
1678888015.1,286047000.3,N
1678888035.9,286047000.5,N
1678888055.7,286047000.2,N
1678888075.6,286046998.8,N
1678888095.4,286046997.3,N
1678888115.2,286046995.4,Y
1678888135.1,286046997.6,P
1678888136.0,286046997.6,N
1678888155.8,286046996.7,N
1678888175.7,286046999.2,N
1678888195.5,286046999.3,N
1678888215.3,286046996.8,N
1678888235.2,286046999.0,N
1678888255.0,286046998.5,N
1678888255.9,286046998.5,N
1678888275.7,286047000.9,N
1678888295.6,286047000.5,N
1678888315.4,286047002.7,N
1678888335.3,286046996.9,N
1678888355.1,286046999.5,N
1678888356.0,286046999.5,N
1678888375.8,286046996.9,N
1678888395.7,286046996.1,N
1678888415.5,286046995.4,N
1678888435.3,286046996.7,N
1678888455.2,286046999.3,N
1678888475.0,286046998.8,N
1678888475.9,286046998.8,N
1678888495.8,286047000.1,N
1678888515.6,286047000.5,N
1678888535.4,286046999.2,N
1678888555.3,286046996.6,N
1678888575.1,286046999.1,N
1678888595.8,286047000.8,N
1678888615.7,286047002.6,N
1678888635.5,286047000.3,N
1678888655.4,286047000.6,N
1678888675.2,286046998.5,N
1678888695.0,286046998.4,N
1678888695.9,286046998.4,N
1678888715.8,286046999.0,N
1678888735.6,286046998.3,N
1678888755.4,286046999.8,N
1678888775.3,286047002.6,N
1678888795.1,286047000.0,N
